STARLINK-32825 (62825 NORAD) Tracking and Keplerian Element Data

This shows tracking and keplerian element data for the satellite.

Feedback or suggestion? Click here.




ElementValue
Catalog62825
NameSTARLINK-32825
Epoch Orbit5086
Epoch Day353.08346975
Epoch Year2025
RAAN321.4144
Inclination53.1609
Eccentricity0.0001427
Argument of Perigee101.84
Mean Anonmoly258.2761
Mean Motion15.30213359
Decay Rate0.00020686
L11 62825U 25018V 25353.08346975 .00020686 00000+0 70831-3 0 9992
L22 62825 53.1609 321.4144 0001427 101.8400 258.2761 15.30213359 50868



Live tracking and technical data element details for STARLINK-32825 (NORAD 62825). STARLINK-32825 can be tracked NOW for your location showing map with azimuth and elevation plus other details from your city location.







IsCatalogInMostPopularTable: catalog: 62825, numindb: 294
Update: records affected: 1



GetName: 62825 STARLINK-32825

Hit Count: updated at: Sat, 07 Feb 2026 22:26:38 GMT